Starlink 6116

operational
NORAD ID: 56911 Int'l Des: 2023-083 Owner: SPXS Country: US Constellation: starlink
LEOCIRCULAR

Über Starlink 6116

Beschreibung wird geladen...

Live-Position

3D-Globus wird geladen...

Nächste Überflüge

Höhenverlauf

Altitude vs Time

uPlot chart will show altitude changes over time

Zweizeiliger Elementsatz

1 56911U 23083AM 25260.56275725 .00001737 00000-0 14367-3 0 9994
2 56911 43.0039 289.8415 0001288 271.5493 88.5202 15.02526739125777
Epoch: 17. Sept. 2025 • Age: 15 hours

Aktueller Status

Höhe 563.0 km
Geschwindigkeit 7.58 km/s
Subsatellitenpunkt -19.28°S, 59.06°E
Startdatum 12. Juni 2023
Alter 2.2 years
Typ internet

Technische Details

Klassifizierung Payload
Masse 305.00 kg
Trockenmasse 290.00 kg
Gesamtmasse 305.00 kg
Länge 0.20 m
Durchmesser 2.80 m
Spannweite 9.00 m
Form Box + pan
Hersteller SPXS
Bus-Typ Starlink
Phasenstatus In Orbit
Besitzer/Staat SPXS/US

Große Konstellationen

Loading constellations...